This demonstration page uses our WeatherBlox Daily Observations layout. Learn more.

Left ArrowRight Arrow

Hourly Observations for January 19, 2015

Temp ( °F °C ) Dew Point ( °F °C ) Humidity (%) Winds ( mph kmh ) Pressure ( in mb ) Visibility ( mi km ) Precip ( " mm )
12:51 am 00:51 Clear 41 5 32 0 70 70 ESE 6 9 30.15 1021 10 16 0.00 0.00
1:51 am 01:51 Clear 42 5.6 31 -0.6 65 65 E 5 7 30.15 1021 10 16 0.00 0.00
2:51 am 02:51 Clear 40 4.4 30 -1.1 68 68 S 5 7 30.15 1021 10 16 0.00 0.00
3:51 am 03:51 Clear 38 3.3 29 -1.7 70 70 Calm 30.16 1021 10 16 0.00 0.00
4:51 am 04:51 Clear 36 2.2 31 -0.6 82 82 E 3 6 30.16 1021 10 16 0.00 0.00
5:51 am 05:51 Clear 36 2.2 29 -1.7 76 76 SSE 5 7 30.18 1022 10 16 0.00 0.00
6:51 am 06:51 Clear 35 1.7 29 -1.7 78 78 SE 6 9 30.20 1023 10 16 0.00 0.00
7:51 am 07:51 Sunny 37 2.8 30 -1.1 76 76 ESE 8 13 30.20 1023 10 16 0.00 0.00
8:51 am 08:51 Sunny 44 6.7 30 -1.1 58 58 SSE 7 11 30.19 1023 10 16 0.00 0.00
9:51 am 09:51 Sunny 51 10.6 32 0 48 48 SSE 5 7 30.19 1022 10 16 0.00 0.00
10:51 am 10:51 Sunny 58 14.4 29 -1.7 33 33 S 6 9 30.17 1022 10 16 0.00 0.00
11:51 am 11:51 Sunny 61 16.1 29 -1.7 30 30 VRB 3 6 30.13 1020 10 16 0.00 0.00
12:51 pm 12:51 Sunny 65 18.3 29 -1.7 26 26 WNW 3 6 30.09 1019 10 16 0.00 0.00
1:51 pm 13:51 Sunny 67 19.4 29 -1.7 24 24 NW 3 6 30.04 1017 10 16 0.00 0.00
2:51 pm 14:51 Sunny 68 20 31 -0.6 25 25 W 7 11 30.03 1017 10 16 0.00 0.00
3:51 pm 15:51 Sunny 68 20 31 -0.6 25 25 W 6 9 30.01 1016 10 16 0.00 0.00
4:51 pm 16:51 Sunny 66 18.9 31 -0.6 27 27 WNW 9 15 30.02 1017 10 16 0.00 0.00
5:51 pm 17:51 Clear 60 15.6 31 -0.6 33 33 W 7 11 30.02 1017 10 16 0.00 0.00
6:51 pm 18:51 Clear 56 13.3 32 0 40 40 N 5 7 30.03 1017 10 16 0.00 0.00
7:51 pm 19:51 Clear 54 12.2 33 0.6 45 45 Calm 30.03 1017 10 16 0.00 0.00
8:51 pm 20:51 Clear 51 10.6 33 0.6 50 50 SSE 5 7 30.02 1017 10 16 0.00 0.00
9:51 pm 21:51 Clear 47 8.3 34 1.1 61 61 SE 3 6 30.02 1017 10 16 0.00 0.00
10:51 pm 22:51 Clear 45 7.2 34 1.1 66 66 ESE 5 7 30.02 1017 10 16 0.00 0.00
11:51 pm 23:51 Clear 44 6.7 33 0.6 65 65 Calm 30.02 1017 10 16 0.00 0.00

Powered by AerisWeather